カタログに戻る

STARLINK-37569

運用中通信VLEO
NORAD 69836·PAYLOAD·🇺🇸 United States

打ち上げ Jul 5, 2026 から Cape Canaveral Space Force Station

Loading…

次のパス (今後24時間)

TLE

最新Source: CelesTrak SupGP

元期: Sep 15, 2026, 03:26 UTC

1 69836C 26154T   26258.14354167  .00068260  00000+0  20172-2 0  2587
2 69836  53.1582 356.5573 0001184  94.1263  87.7120 15.34350090    17

AllMySatでSTARLINK-37569をリアルタイム追跡

Download on the App Store